Starlink 3705

operational
NORAD ID: 52103 Int'l Des: 2022-029 Owner: SPXS Country: US Constellation: starlink
LEOCIRCULAR

About Starlink 3705

Description loading...

Live Position

Loading 3D Globe...

Upcoming Passes

Altitude History

Altitude vs Time

uPlot chart will show altitude changes over time

Two-Line Element Set

1 52103U 22029R 25350.57235742 -.00003405 00000-0 -19590-3 0 9997
2 52103 53.2183 92.2481 0001245 87.0233 273.0902 15.08843927208231
Epoch: Dec 16, 2025 • Age: 20 hours

Current Status

Altitude 540.8 km
Velocity 7.59 km/s
Sub-Earth Point -1.20°S, 38.94°E
Launch Date Mar 19, 2022
Age 3.7 years
Type internet

Technical Details

Classification Payload
Mass 297.00 kg
Dry Mass 275.00 kg
Total Mass 297.00 kg
Length 0.20 m
Diameter 2.80 m
Span 9.00 m
Shape Box + pan
Manufacturer SPXS
Bus Type Starlink
Phase Status In Orbit
Owner/State SPXS/US

Large Constellations

Loading constellations...